Location: Borovka
(49.7741°N, 14.5280°E)
Time: 17:59:12
(UTC+00:00)

SAR-Lupe-1 - Pass Details

Date: 17 November 2025
Orbit: 477 x 487 km, 98.1° (Epoch: 19 February)

Event Time Altitude Azimuth Distance (km) Brightness Sun altitude
Rises 16:29:44 0° 166° (SSE) 2,526 7.7 -11.8°
Reaches altitude 10° 16:31:46 10° 168° (SSE) 1,653 6.8 -12.1°
Maximum altitude 16:35:20 81° 256° (WSW) 494 4.1 -12.7°
Drops below altitude 10° 16:38:56 10° 344° (NNW) 1,674 6.8 -13.3°
Sets 16:41:00 0° 345° (NNW) 2,561 7.8 -13.6°
